Location: Chiroubles
(46.1812°N, 4.6660°E)
Time: 11:22:20
(UTC+00:00)

SR - Pass Details

Date: 30 November 2020
Orbit: 575 x 880 km, 66.7° (Epoch: 20 January)

Event Time Altitude Azimuth Distance (km) Brightness Sun altitude
Rises 18:42:53 0° 238° (WSW) 2,821 ? -27.9°
Reaches altitude 10° 18:45:13 10° 248° (WSW) 1,951 ? -28.3°
Maximum altitude 18:49:13 34° 314° (NW) 1,054 ? -29.0°
Enters shadow 18:49:25 33° 320° (NW) 1,060 ? -29.1°
